GPS BIIF-12 (PRN 32)

Last updated on Mon Jan 20 2020 04:32:17 GMT+0000 (Coordinated Universal Time)

1 41328U 16007A 20019.03311176 .00000081 00000-0 00000-0 0 9995 2 41328 54.8225 182.4038 0035852 217.2957 142.4411 2.00563470 28934
UTC large
Height (km)
Speed (km/s)
/
Latitude / Longitude
Inclination (degrees)
Orbital Period (minutes)
Azimuth
Elevation
Range (km)
Doppler Factor

Next 0 passes for location: London (51.5072 / 0.1276)

Sorry there are no passes over London.